Location: Praha
(50.0830°N, 14.4670°E)
Time: 20:08:47
(UTC+01:00)

ISS - Pass Details

Date: 06 December 2019
Orbit: 411 x 421 km, 51.6° (Epoch: 08 December)

Event Time Altitude Azimuth Distance (km) Brightness Sun altitude
Rises 18:24:58 0° 287° (WNW) 2,361 1.1 -22.1°
Reaches altitude 10° 18:27:07 10° 280° (W) 1,497 0.0 -22.4°
Enters shadow 18:30:10 41° 217° (SW) 620 -2.7 -22.9°
